FO-29
1 24278U 96046B 11258.57215017 -.00000063 00000-0 -27955-4 0 6656
2 24278 098.5615 030.5708 0351038 023.1462 338.5062 13.52964391744689
SO-33
1 25509U 98061B 11258.59881263 .00000343 00000-0 55372-4 0 542
2 25509 031.4358 092.9247 0354007 312.2161 044.9024 14.28446798673210
RS-22
1 27939U 03042A 11258.32793276 .00000259 00000-0 58245-4 0 6301
2 27939 097.8347 107.9725 0014692 061.6638 298.6028 14.63641541425521
VO-52
1 28650U 05017B 11258.56106729 .00001277 00000-0 16571-3 0 8996
2 28650 097.6332 297.6137 0025956 223.8336 136.0827 14.82178735344130
SO-67
1 35870U 09049F 11258.81630942 .00003408 00000-0 15625-3 0 2221
2 35870 097.2725 299.1286 0003900 072.9376 038.3886 15.21102687110719
HO-68
1 36122U 09072B 11258.84002295 -.00000044 00000-0 00000 0 0 7423
2 36122 100.4065 318.2419 0007593 020.8534 339.2883 13.16287927 84167
UO-11
1 14781U 84021B 11257.71998233 .00000480 00000-0 70430-4 0 06698
2 14781 097.9964 314.1053 0008467 202.8412 157.2423 14.80032138479035
AO-16
1 20439U 90005D 11257.88245450 .00000078 00000-0 44997-4 0 2809
2 20439 098.3916 204.5371 0009978 258.0806 101.9257 14.31939144130457
LO-19
1 20442U 90005G 11257.94791771 .00000165 00000-0 76812-4 0 02158
2 20442 098.3564 208.6109 0010896 250.0568 109.9437 14.32163524130643
AO-27
1 22825U 93061C 11257.89232733 .00000141 00000-0 72264-4 0 9138
2 22825 098.5381 200.5238 0008726 018.0246 342.1240 14.29363250937009
IO-26
1 22826U 93061D 11257.87528457 .00000087 00000-0 50976-4 0 06680
2 22826 098.5320 200.9542 0009501 011.5733 348.5665 14.29627001937127
GO-32
1 25397U 98043D 11257.83048586 .00000020 00000-0 26999-4 0 05805
2 25397 098.3340 245.6316 0001823 044.8374 315.2931 14.23218582684712
NO-44
1 26931U 01043C 11257.86593372 -.00000054 00000-0 11089-4 0 08495
2 26931 067.0514 112.4485 0005183 254.6350 105.4122 14.29679011519744
SO-50
1 27607U 02058C 11258.43677219 .00000427 00000-0 86773-4 0 5650
2 27607 064.5580 053.4113 0079901 302.3653 056.9760 14.71812275469377
CO-55
1 27844U 03031E 11257.61172038 .00000179 00000-0 10315-3 0 1987
2 27844 098.7082 265.0218 0009195 305.9369 054.0947 14.20842812425613
CO-57
1 27848U 03031J 11258.06212936 .00000141 00000-0 85869-4 0 1473
2 27848 098.7139 264.6853 0009282 309.3811 050.6565 14.20618762425621
AO-51
1 28375U 04025K 11257.49038230 .00000064 00000-0 31854-4 0 00728
2 28375 098.1080 231.2868 0083518 158.6797 201.7909 14.40778805378922
CP3
1 31129U 07012N 11258.73472876 .00000509 00000-0 12745-3 0 9690
2 31129 097.8941 277.7077 0099865 258.9657 100.0237 14.52561651233986
CO-65
1 32785U 08021C 11257.73775390 .00000905 00000-0 12018-3 0 00982
2 32785 097.8409 319.8800 0013742 242.4591 117.5266 14.82114909182803
PRISM
1 33493U 09002B 11258.77969606 .00002137 00000-0 27587-3 0 9636
2 33493 098.1367 028.7813 0020932 107.1524 253.2000 14.81929892142937
SOHLA-1
1 33496U 09002E 11258.87525135 .00000273 00000-0 54121-4 0 5174
2 33496 098.0867 007.8217 0006277 187.8789 172.2319 14.69657940141800
TISAT-1
1 36799U 10035E 11258.76062124 .00001320 00000-0 17839-3 0 2369
2 36799 098.0946 327.8792 0015027 349.9111 010.1803 14.80714914 63712
STUDSAT
1 36801U 10035G 11258.55473928 .00003764 00000-0 49192-3 0 2404
2 36801 098.0977 327.6014 0013156 338.0530 022.0117 14.81017570 63670
OOREOS
1 37224U 10062C 11153.29456974 .00000492 00000-0 77478-4 0 01796
2 37224 071.9726 071.8135 0020315 307.7637 052.1684 14.77036357028673
FO-69
1 37227U 0 11257.41482386 .00000397 00000-0 64675-4 0 01301
2 37227 071.9686 202.5136 0015695 118.9565 241.3173 14.76642402022494
NANOSALD
1 37361U 0 11242.25215765 .00180112 00000-0 75811-2 0 03512
2 37361 071.9735 221.4469 0025730 245.3422 114.7284 15.22200108033319
FO-70
1 37380U 0 11257.44267351 .00000431 00000-0 69863-4 0 02693
2 37380 071.9721 202.6664 0016095 115.1825 245.1019 14.76407357044037
NOAA-10
1 16969U 86073A 11258.49071486 .00000043 00000-0 35224-4 0 6377
2 16969 098.6134 287.0256 0011891 325.3220 034.7185 14.27476773300538
NOAA-11
1 19531U 88089A 11258.36203870 .00000297 00000-0 17586-3 0 6353
2 19531 098.7507 344.1078 0010615 293.9742 066.0342 14.14924084185500
NOAA-12
1 21263U 91032A 11258.47752765 .00000157 00000-0 84807-4 0 1265
2 21263 098.7496 276.1575 0011569 286.8354 073.1557 14.25738600 57275
MET-3/5
1 21655U 91056A 11257.85266883 .00000051 00000-0 10000-3 0 2085
2 21655 082.5624 347.4209 0012119 295.4267 064.5616 13.17028283965526
MET-2/21
1 22782U 93055A 11257.56268183 .00000088 00000-0 66364-4 0 2020
2 22782 082.5437 251.9639 0021734 204.5849 155.4266 13.83661420910919
OKEAN-4
1 23317U 94066A 11257.96329427 .00000786 00000-0 93090-4 0 07072
2 23317 082.5394 289.3080 0021736 178.0909 182.0395 14.83150709913854
NOAA-14
1 23455U 94089A 11258.47911697 .00000168 00000-0 11218-3 0 6112
2 23455 098.8477 340.1977 0009949 027.5644 332.6055 14.13832359861833
NOAA-15
1 25338U 98030A 11258.32548045 .00000118 00000-0 69101-4 0 9495
2 25338 098.6635 243.2728 0010407 185.3664 174.7403 14.24949478693560
RESURS
1 25394U 98043A 11257.96133139 .00000098 00000-0 60184-4 0 09123
2 25394 098.3047 256.0590 0001670 009.7856 350.3358 14.24239635685085
FENGYUN1
1 25730U 99025A 11258.87207218 .00001636 00000-0 97059-3 0 4224
2 25730 098.8235 218.1028 0025238 059.4326 300.9334 14.08789026635837
OKEAN-0
1 25860U 99039A 11257.98346273 .00000349 00000-0 60809-4 0 04133
2 25860 097.8952 222.0106 0001888 063.9315 296.2088 14.73831979653885
NOAA-16
1 26536U 00055A 11258.38374037 -.00000114 00000-0 -36663-4 0 4322
2 26536 099.1337 290.7312 0011125 136.3637 223.8426 14.12642207566091
NOAA-17
1 27453U 02032A 11258.30721842 -.00000052 00000-0 -45634-5 0 4195
2 27453 098.3715 293.8467 0010800 243.7524 116.2540 14.24310631479487
NOAA-18
1 28654U 05018A 11258.33789970 .00000314 00000-0 19799-3 0 8975
2 28654 099.0046 209.7442 0013725 208.5447 151.4972 14.11513873325644
NOAA-19
1 33591U 09005A 11258.35515411 -.00000087 00000-0 -24063-4 0 882
2 33591 098.8322 197.0155 0015152 080.6548 279.6344 14.11201897134106
HUBBLE
1 20580U 90037B 11258.12105077 .00001691 00000-0 11502-3 0 8352
2 20580 028.4708 148.9114 0003090 356.9216 003.1378 15.01503895973185
ISS
1 25544U 98067A 11258.85068326 .00018207 00000-0 21666-3 0 718
2 25544 051.6391 064.3815 0011453 194.5135 320.6872 15.61117627735062
CO-58
1 28895U 05043F 11258.65857009 .00000534 00000-0 11990-3 0 9749
2 28895 097.9522 131.4856 0016706 298.9719 060.9816 14.60170908313442
FALCON
1 30776U 07006E 11257.94549029 .00002804 00000-0 19677-3 0 01892
2 30776 035.4329 161.0915 0000539 212.2053 147.8643 15.04939642248578
MAST
1 31126U 07012K 11257.64849742 .00000450 00000-0 11168-3 0 2591
2 31126 097.8918 279.8038 0093230 252.2793 106.8210 14.53801629234085
CAPE1
1 31130U 07012P 11257.57986262 .00000369 00000-0 95262-4 0 02730
2 31130 097.8965 276.3781 0101215 263.8629 095.1025 14.52461735233619
COMPASS
1 32787U 08021E 11258.65275790 .00001289 00000-0 16648-3 0 928
2 32787 097.8392 320.7511 0014636 239.3616 120.6156 14.82601672182960
AAUSAT2
1 32788U 08021F 11257.72749079 .00001388 00000-0 17798-3 0 00828
2 32788 097.8424 320.0978 0014115 243.3593 116.6145 14.82796228182840
DO-64
1 32789U 08021G 11258.71751268 .00002540 00000-0 31575-3 0 989
2 32789 097.8503 322.2545 0014365 237.0771 122.9035 14.83375146183008
